Location: ???????
(54.6339°N, 39.4245°E)
Time: 07:29:03
(UTC+00:00)

USA 229 DEB - Pass Details

Date: 19 May 2025
Orbit: 872 x 1339 km, 63.4° (Epoch: 20 June)

Event Time Altitude Azimuth Distance (km) Brightness Sun altitude
Exits shadow 21:33:21 19° 210° (SSW) 2,102 4.7 -15.3°
Maximum altitude 21:37:56 68° 132° (SE) 1,082 3.6 -15.3°
Drops below altitude 10° 21:44:48 10° 51° (NE) 2,958 6.7 -15.2°
Sets 21:47:39 0° 49° (NE) 3,992 7.5 -15.1°
